Time,TemperatureF,DewpointF,PressureIn,WindDirection,WindDirectionDegrees,WindSpeedMPH,WindSpeedGustMPH,Humidity,HourlyPrecipIn,Conditions,Clouds,dailyrainin,SoftwareType,DateUTC
2013-10-28 00:01:00,48.6,34.9,30.07,North,357,0.0,0.0,59,0.00,CLR,,0.00,WeatherDisplay:10.37,2013-10-28 04:01:00,
2013-10-28 00:03:00,48.6,34.9,30.07,North,357,0.0,0.0,59,0.00,CLR,,0.00,WeatherDisplay:10.37,2013-10-28 04:03:00,
2013-10-28 00:04:00,48.6,34.9,30.07,North,357,0.0,0.0,59,0.00,CLR,,0.00,WeatherDisplay:10.37,2013-10-28 04:04:00,
2013-10-28 00:09:00,48.7,35.0,30.07,North,357,0.0,0.0,59,0.00,BKN,,0.00,WeatherDisplay:10.37,2013-10-28 04:09:00,
2013-10-28 00:14:00,48.9,35.2,30.07,North,357,0.0,0.0,59,0.00,BKN,,0.00,WeatherDisplay:10.37,2013-10-28 04:14:00,
2013-10-28 00:19:00,48.9,35.2,30.07,NNE,19,0.0,0.0,59,0.00,BKN,,0.00,WeatherDisplay:10.37,2013-10-28 04:19:00,
2013-10-28 00:24:00,49.1,35.4,30.07,ENE,65,0.0,0.0,59,0.00,BKN,,0.00,WeatherDisplay:10.37,2013-10-28 04:24:00,
2013-10-28 00:29:00,49.3,35.5,30.07,ENE,65,0.0,0.0,59,0.00,BKN,,0.00,WeatherDisplay:10.37,2013-10-28 04:29:00,
2013-10-28 00:34:00,49.3,35.1,30.07,ENE,65,0.0,0.0,58,0.00,BKN,,0.00,WeatherDisplay:10.37,2013-10-28 04:34:00,
2013-10-28 00:39:00,49.3,35.1,30.07,ENE,65,0.0,0.0,58,0.00,BKN,,0.00,WeatherDisplay:10.37,2013-10-28 04:39:00,
2013-10-28 00:44:00,49.8,35.6,30.07,NNE,19,0.0,0.0,58,0.00,BKN,,0.00,WeatherDisplay:10.37,2013-10-28 04:44:00,
2013-10-28 00:49:00,49.8,35.6,30.07,NNE,19,0.0,0.0,58,0.00,BKN,,0.00,WeatherDisplay:10.37,2013-10-28 04:49:00,
2013-10-28 00:54:00,49.8,35.6,30.07,NE,42,0.0,0.0,58,0.00,BKN,,0.00,WeatherDisplay:10.37,2013-10-28 04:54:00,
2013-10-28 00:59:00,49.8,35.6,30.07,NE,42,0.0,0.0,58,0.00,BKN,,0.00,WeatherDisplay:10.37,2013-10-28 04:59:00,
2013-10-28 01:04:00,49.8,35.6,30.07,ENE,65,0.0,0.0,58,0.00,BKN,,0.00,WeatherDisplay:10.37,2013-10-28 05:04:00,
2013-10-28 01:09:00,49.8,35.6,30.07,NW,312,0.0,0.0,58,0.00,OVC,,0.00,WeatherDisplay:10.37,2013-10-28 05:09:00,
2013-10-28 01:14:00,49.8,36.5,30.07,North,357,0.0,0.0,60,0.00,OVC,,0.00,WeatherDisplay:10.37,2013-10-28 05:14:00,
2013-10-28 01:19:00,50.0,36.7,30.07,North,357,0.0,0.0,60,0.00,OVC,,0.00,WeatherDisplay:10.37,2013-10-28 05:19:00,
2013-10-28 01:24:00,50.2,36.8,30.07,North,357,0.0,0.0,60,0.00,OVC,,0.00,WeatherDisplay:10.37,2013-10-28 05:24:00,
2013-10-28 01:29:00,50.2,36.4,30.07,NNW,335,0.0,0.0,59,0.00,OVC,,0.00,WeatherDisplay:10.37,2013-10-28 05:29:00,
2013-10-28 01:34:00,50.2,36.8,30.07,North,357,0.0,0.0,60,0.00,OVC,,0.00,WeatherDisplay:10.37,2013-10-28 05:34:00,
2013-10-28 01:39:00,50.0,36.2,30.07,NE,42,0.0,0.0,59,0.00,OVC,,0.00,WeatherDisplay:10.37,2013-10-28 05:39:00,
2013-10-28 01:44:00,50.0,36.2,30.06,NE,42,0.0,0.0,59,0.00,OVC,,0.00,WeatherDisplay:10.37,2013-10-28 05:44:00,
2013-10-28 01:49:00,49.8,35.6,30.06,East,87,0.0,0.0,58,0.00,OVC,,0.00,WeatherDisplay:10.37,2013-10-28 05:49:00,
2013-10-28 01:54:00,49.8,35.6,30.06,ESE,109,0.0,0.0,58,0.00,OVC,,0.00,WeatherDisplay:10.37,2013-10-28 05:54:00,
2013-10-28 01:59:00,49.6,35.5,30.06,ENE,65,0.0,0.0,58,0.00,OVC,,0.00,WeatherDisplay:10.37,2013-10-28 05:59:00,
2013-10-28 02:04:00,49.5,35.3,30.06,South,177,0.0,0.0,58,0.00,OVC,,0.00,WeatherDisplay:10.37,2013-10-28 06:04:00,
2013-10-28 02:09:00,49.3,35.1,30.06,ESE,109,0.0,0.0,58,0.00,OVC,,0.00,WeatherDisplay:10.37,2013-10-28 06:09:00,
2013-10-28 02:14:00,49.1,35.4,30.06,ENE,65,0.0,0.0,59,0.00,OVC,,0.00,WeatherDisplay:10.37,2013-10-28 06:14:00,
2013-10-28 02:19:00,49.1,35.4,30.06,SE,132,0.0,0.0,59,0.00,OVC,,0.00,WeatherDisplay:10.37,2013-10-28 06:19:00,
2013-10-28 02:24:00,49.3,35.5,30.06,SSE,155,0.0,0.0,59,0.00,OVC,,0.00,WeatherDisplay:10.37,2013-10-28 06:24:00,
2013-10-28 02:29:00,49.3,35.5,30.07,ESE,109,0.0,0.0,59,0.00,OVC,,0.00,WeatherDisplay:10.37,2013-10-28 06:29:00,
2013-10-28 02:34:00,49.3,35.5,30.07,South,177,0.0,0.0,59,0.00,OVC,,0.00,WeatherDisplay:10.37,2013-10-28 06:34:00,
2013-10-28 02:39:00,49.5,35.7,30.07,ENE,65,0.0,0.0,59,0.00,OVC,,0.00,WeatherDisplay:10.37,2013-10-28 06:39:00,
2013-10-28 02:44:00,49.6,36.3,30.07,ENE,65,0.0,0.0,60,0.00,OVC,,0.00,WeatherDisplay:10.37,2013-10-28 06:44:00,
2013-10-28 02:49:00,49.6,36.3,30.07,ENE,65,0.0,0.0,60,0.00,OVC,,0.00,WeatherDisplay:10.37,2013-10-28 06:49:00,
2013-10-28 02:54:00,49.6,36.3,30.08,ENE,65,0.0,0.0,60,0.00,OVC,,0.00,WeatherDisplay:10.37,2013-10-28 06:54:00,
2013-10-28 02:59:00,49.6,36.3,30.08,ENE,65,0.0,0.0,60,0.00,OVC,,0.00,WeatherDisplay:10.37,2013-10-28 06:59:00,
2013-10-28 03:04:00,49.8,36.5,30.08,NE,42,0.0,0.0,60,0.00,OVC,,0.00,WeatherDisplay:10.37,2013-10-28 07:04:00,
2013-10-28 03:09:00,49.8,36.5,30.08,NE,42,0.0,0.0,60,0.00,BKN,,0.00,WeatherDisplay:10.37,2013-10-28 07:09:00,
2013-10-28 03:14:00,49.8,36.9,30.08,North,357,0.0,0.0,61,0.00,BKN,,0.00,WeatherDisplay:10.37,2013-10-28 07:14:00,
2013-10-28 03:19:00,50.2,37.2,30.08,North,357,0.5,1.6,61,0.00,BKN,,0.00,WeatherDisplay:10.37,2013-10-28 07:19:00,
2013-10-28 03:24:00,50.2,37.2,30.08,NNE,19,0.0,0.0,61,0.00,BKN,,0.00,WeatherDisplay:10.37,2013-10-28 07:24:00,
2013-10-28 03:29:00,50.2,37.2,30.07,NNE,19,0.0,0.0,61,0.00,BKN,,0.00,WeatherDisplay:10.37,2013-10-28 07:29:00,
2013-10-28 03:34:00,50.2,37.2,30.07,North,357,0.0,0.0,61,0.00,BKN,,0.00,WeatherDisplay:10.37,2013-10-28 07:34:00,
2013-10-28 03:39:00,50.2,37.2,30.08,North,357,1.7,2.3,61,0.00,BKN,,0.00,WeatherDisplay:10.37,2013-10-28 07:39:00,
2013-10-28 03:44:00,50.4,37.4,30.08,NW,312,0.0,0.0,61,0.00,BKN,,0.00,WeatherDisplay:10.37,2013-10-28 07:44:00,
2013-10-28 03:49:00,50.4,37.4,30.08,North,357,0.0,0.0,61,0.00,BKN,,0.00,WeatherDisplay:10.37,2013-10-28 07:49:00,
2013-10-28 03:54:00,50.2,37.2,30.08,North,357,0.0,0.0,61,0.00,BKN,,0.00,WeatherDisplay:10.37,2013-10-28 07:54:00,
2013-10-28 03:59:00,50.2,37.2,30.08,NNW,335,1.1,1.1,61,0.00,BKN,,0.00,WeatherDisplay:10.37,2013-10-28 07:59:00,
2013-10-28 04:04:00,50.0,37.1,30.08,NNW,335,1.1,3.8,61,0.00,BKN,,0.00,WeatherDisplay:10.37,2013-10-28 08:04:00,
2013-10-28 04:09:00,49.8,37.3,30.08,NNE,19,0.2,1.1,62,0.00,OVC,,0.00,WeatherDisplay:10.37,2013-10-28 08:09:00,
2013-10-28 04:14:00,49.8,37.3,30.08,North,357,2.9,3.5,62,0.00,OVC,,0.00,WeatherDisplay:10.37,2013-10-28 08:14:00,
2013-10-28 04:19:00,49.6,38.0,30.08,NNE,19,3.4,3.5,64,0.00,OVC,,0.00,WeatherDisplay:10.37,2013-10-28 08:19:00,
2013-10-28 04:24:00,49.3,37.6,30.08,NNW,335,0.0,0.0,64,0.00,OVC,,0.00,WeatherDisplay:10.37,2013-10-28 08:24:00,
2013-10-28 04:29:00,49.1,37.4,30.08,NE,42,0.0,0.0,64,0.00,OVC,,0.00,WeatherDisplay:10.37,2013-10-28 08:29:00,
2013-10-28 04:34:00,49.1,37.8,30.08,NE,42,1.1,1.1,65,0.00,OVC,,0.00,WeatherDisplay:10.37,2013-10-28 08:34:00,
2013-10-28 04:39:00,49.1,37.8,30.09,NE,42,0.0,0.0,65,0.00,OVC,,0.00,WeatherDisplay:10.37,2013-10-28 08:39:00,
2013-10-28 04:44:00,48.9,37.7,30.09,NE,42,0.0,0.0,65,0.00,OVC,,0.00,WeatherDisplay:10.37,2013-10-28 08:44:00,
2013-10-28 04:49:00,48.9,37.7,30.09,NE,42,0.0,0.0,65,0.00,OVC,,0.00,WeatherDisplay:10.37,2013-10-28 08:49:00,
2013-10-28 04:54:00,48.9,37.7,30.09,ENE,65,0.0,0.0,65,0.00,OVC,,0.00,WeatherDisplay:10.37,2013-10-28 08:54:00,
2013-10-28 04:59:00,49.1,38.2,30.09,East,87,0.0,0.0,66,0.00,OVC,,0.00,WeatherDisplay:10.37,2013-10-28 08:59:00,
2013-10-28 05:04:00,49.1,38.2,30.09,ESE,109,0.0,0.0,66,0.00,OVC,,0.00,WeatherDisplay:10.37,2013-10-28 09:04:00,
2013-10-28 05:09:00,49.1,37.8,30.09,North,357,0.0,0.0,65,0.00,OVC,,0.00,WeatherDisplay:10.37,2013-10-28 09:09:00,
2013-10-28 05:14:00,49.3,38.4,30.09,ENE,65,0.0,0.0,66,0.00,OVC,,0.00,WeatherDisplay:10.37,2013-10-28 09:14:00,
2013-10-28 05:20:00,49.3,38.4,30.09,East,87,0.0,0.0,66,0.00,OVC,,0.00,WeatherDisplay:10.37,2013-10-28 09:20:00,
2013-10-28 05:25:00,49.3,38.4,30.09,NE,42,0.0,0.0,66,0.00,OVC,,0.00,WeatherDisplay:10.37,2013-10-28 09:25:00,
2013-10-28 05:30:00,49.3,38.4,30.10,NE,42,0.0,0.0,66,0.00,OVC,,0.00,WeatherDisplay:10.37,2013-10-28 09:30:00,
2013-10-28 05:35:00,49.3,38.4,30.10,North,357,0.9,1.1,66,0.00,OVC,,0.00,WeatherDisplay:10.37,2013-10-28 09:35:00,
2013-10-28 05:40:00,49.3,38.4,30.10,NNE,19,1.3,1.3,66,0.00,OVC,,0.00,WeatherDisplay:10.37,2013-10-28 09:40:00,
2013-10-28 05:45:00,49.3,38.0,30.10,East,87,0.0,0.0,65,0.00,OVC,,0.00,WeatherDisplay:10.37,2013-10-28 09:45:00,
2013-10-28 05:50:00,49.5,38.2,30.10,NE,42,0.0,0.0,65,0.00,OVC,,0.00,WeatherDisplay:10.37,2013-10-28 09:50:00,
2013-10-28 05:55:00,49.6,38.3,30.10,East,87,0.0,0.0,65,0.00,OVC,,0.00,WeatherDisplay:10.37,2013-10-28 09:55:00,
2013-10-28 06:00:00,49.6,38.7,30.11,ENE,65,0.0,0.0,66,0.00,OVC,,0.00,WeatherDisplay:10.37,2013-10-28 10:00:00,
2013-10-28 06:05:00,49.6,38.7,30.11,ENE,65,0.0,0.0,66,0.00,OVC,,0.00,WeatherDisplay:10.37,2013-10-28 10:05:00,
2013-10-28 06:10:00,49.6,38.7,30.11,ENE,65,0.0,0.0,66,0.00,OVC,,0.00,WeatherDisplay:10.37,2013-10-28 10:10:00,
2013-10-28 06:15:00,49.6,38.7,30.11,ENE,65,0.0,0.0,66,0.00,OVC,,0.00,WeatherDisplay:10.37,2013-10-28 10:15:00,
2013-10-28 06:20:00,49.6,38.7,30.11,NE,42,0.0,0.0,66,0.00,OVC,,0.00,WeatherDisplay:10.37,2013-10-28 10:20:00,
2013-10-28 06:25:00,49.6,38.7,30.11,ENE,65,0.0,0.0,66,0.00,OVC,,0.00,WeatherDisplay:10.37,2013-10-28 10:25:00,
2013-10-28 06:30:00,49.5,38.6,30.11,East,87,0.0,0.0,66,0.00,OVC,,0.00,WeatherDisplay:10.37,2013-10-28 10:30:00,
2013-10-28 06:35:00,49.3,38.4,30.11,NE,42,0.0,0.0,66,0.00,OVC,,0.00,WeatherDisplay:10.37,2013-10-28 10:35:00,
2013-10-28 06:40:00,49.3,38.4,30.11,ENE,65,0.0,0.0,66,0.00,OVC,,0.00,WeatherDisplay:10.37,2013-10-28 10:40:00,
2013-10-28 06:45:00,49.3,38.4,30.11,ENE,65,0.0,0.0,66,0.00,OVC,,0.00,WeatherDisplay:10.37,2013-10-28 10:45:00,
2013-10-28 06:50:00,49.5,38.6,30.12,NE,42,0.0,0.0,66,0.00,OVC,,0.00,WeatherDisplay:10.37,2013-10-28 10:50:00,
2013-10-28 06:55:00,49.5,38.6,30.11,ENE,65,0.0,0.0,66,0.00,OVC,,0.00,WeatherDisplay:10.37,2013-10-28 10:55:00,
2013-10-28 07:00:00,49.5,38.6,30.11,ENE,65,0.0,0.0,66,0.00,OVC,,0.00,WeatherDisplay:10.37,2013-10-28 11:00:00,
2013-10-28 07:05:00,49.6,38.7,30.11,NE,42,0.0,0.0,66,0.00,OVC,,0.00,WeatherDisplay:10.37,2013-10-28 11:05:00,
2013-10-28 07:10:00,49.5,38.6,30.11,NNE,19,0.0,0.0,66,0.00,OVC,,0.00,WeatherDisplay:10.37,2013-10-28 11:10:00,
2013-10-28 07:15:00,49.5,38.6,30.11,ENE,59,0.0,0.0,66,0.00,OVC,,0.00,WeatherDisplay:10.37,2013-10-28 11:15:00,
2013-10-28 07:20:00,49.6,39.1,30.11,ESE,109,0.0,0.0,67,0.00,OVC,,0.00,WeatherDisplay:10.37,2013-10-28 11:20:00,
2013-10-28 07:25:00,49.6,39.1,30.11,ESE,109,0.0,0.0,67,0.00,OVC,,0.00,WeatherDisplay:10.37,2013-10-28 11:25:00,
2013-10-28 07:30:00,49.6,39.1,30.11,ENE,65,0.0,0.0,67,0.00,OVC,,0.00,WeatherDisplay:10.37,2013-10-28 11:30:00,
2013-10-28 07:35:00,49.6,39.1,30.12,NE,47,0.0,0.0,67,0.00,OVC,,0.00,WeatherDisplay:10.37,2013-10-28 11:35:00,
2013-10-28 07:40:00,49.6,39.1,30.12,NNE,19,0.0,0.0,67,0.00,OVC,,0.00,WeatherDisplay:10.37,2013-10-28 11:40:00,
2013-10-28 07:45:00,49.6,38.7,30.12,NNE,14,0.0,0.0,66,0.00,OVC,,0.00,WeatherDisplay:10.37,2013-10-28 11:45:00,
2013-10-28 07:50:00,49.6,38.7,30.13,NNE,19,0.0,0.0,66,0.00,OVC,,0.00,WeatherDisplay:10.37,2013-10-28 11:50:00,
2013-10-28 07:55:00,49.6,38.7,30.13,NNE,14,0.0,0.0,66,0.00,OVC,,0.00,WeatherDisplay:10.37,2013-10-28 11:55:00,
2013-10-28 08:00:00,49.6,39.1,30.13,NNW,335,0.0,0.0,67,0.00,OVC,,0.00,WeatherDisplay:10.37,2013-10-28 12:00:00,
2013-10-28 08:05:00,49.6,39.1,30.13,North,5,0.0,0.0,67,0.00,OVC,,0.00,WeatherDisplay:10.37,2013-10-28 12:05:00,
2013-10-28 08:10:00,49.6,39.1,30.14,NNE,19,0.0,0.0,67,0.00,OVC,,0.00,WeatherDisplay:10.37,2013-10-28 12:10:00,
2013-10-28 08:15:00,49.6,39.1,30.14,NE,36,0.0,0.0,67,0.00,OVC,,0.00,WeatherDisplay:10.37,2013-10-28 12:15:00,
2013-10-28 08:20:00,49.6,39.1,30.14,North,357,0.0,0.0,67,0.00,OVC,,0.00,WeatherDisplay:10.37,2013-10-28 12:20:00,
2013-10-28 08:25:00,49.6,39.1,30.14,NNE,20,0.0,0.0,67,0.00,OVC,,0.00,WeatherDisplay:10.37,2013-10-28 12:25:00,
2013-10-28 08:30:00,49.6,39.1,30.14,NNW,335,0.0,0.0,67,0.00,OVC,,0.00,WeatherDisplay:10.37,2013-10-28 12:30:00,
2013-10-28 08:35:00,49.6,39.1,30.15,NNE,15,0.0,0.0,67,0.00,OVC,,0.00,WeatherDisplay:10.37,2013-10-28 12:35:00,
2013-10-28 08:40:00,49.6,39.5,30.15,NNW,335,0.0,0.0,68,0.00,OVC,,0.00,WeatherDisplay:10.37,2013-10-28 12:40:00,
2013-10-28 08:45:00,49.6,39.5,30.15,North,360,0.0,0.0,68,0.00,OVC,,0.00,WeatherDisplay:10.37,2013-10-28 12:45:00,
2013-10-28 08:50:00,49.6,39.5,30.16,North,357,0.0,0.0,68,0.00,OVC,,0.00,WeatherDisplay:10.37,2013-10-28 12:50:00,
2013-10-28 08:55:00,49.8,39.7,30.16,NE,46,0.0,0.0,68,0.00,OVC,,0.00,WeatherDisplay:10.37,2013-10-28 12:55:00,
2013-10-28 09:00:00,49.8,39.7,30.16,ENE,65,0.7,1.1,68,0.00,OVC,,0.00,WeatherDisplay:10.37,2013-10-28 13:00:00,
2013-10-28 09:05:00,49.8,39.7,30.17,ENE,58,0.0,0.0,68,0.00,OVC,,0.00,WeatherDisplay:10.37,2013-10-28 13:05:00,
2013-10-28 09:10:00,49.8,39.7,30.17,South,177,0.0,0.0,68,0.00,OVC,,0.00,WeatherDisplay:10.37,2013-10-28 13:10:00,
2013-10-28 09:15:00,49.8,39.7,30.17,NNE,14,0.0,0.0,68,0.00,OVC,,0.00,WeatherDisplay:10.37,2013-10-28 13:15:00,
2013-10-28 09:20:00,49.8,39.7,30.17,East,87,0.0,0.0,68,0.00,OVC,,0.00,WeatherDisplay:10.37,2013-10-28 13:20:00,
2013-10-28 09:25:00,49.8,39.7,30.17,ENE,73,0.0,0.0,68,0.00,OVC,,0.00,WeatherDisplay:10.37,2013-10-28 13:25:00,
2013-10-28 09:30:00,49.8,39.7,30.17,SE,132,0.0,0.0,68,0.00,OVC,,0.00,WeatherDisplay:10.37,2013-10-28 13:30:00,
2013-10-28 09:35:00,49.8,39.7,30.17,SE,125,0.0,0.0,68,0.00,OVC,,0.00,WeatherDisplay:10.37,2013-10-28 13:35:00,
2013-10-28 09:40:00,49.8,39.7,30.17,East,87,0.0,0.0,68,0.00,OVC,,0.00,WeatherDisplay:10.37,2013-10-28 13:40:00,
2013-10-28 09:45:00,50.2,40.0,30.18,East,87,0.0,0.0,68,0.00,OVC,,0.00,WeatherDisplay:10.37,2013-10-28 13:45:00,
2013-10-28 09:50:00,50.2,40.0,30.18,ENE,65,0.0,0.0,68,0.00,OVC,,0.00,WeatherDisplay:10.37,2013-10-28 13:50:00,
2013-10-28 09:55:00,50.2,40.0,30.18,NE,51,0.0,0.0,68,0.00,OVC,,0.00,WeatherDisplay:10.37,2013-10-28 13:55:00,
2013-10-28 10:00:00,50.4,40.2,30.18,ENE,65,0.0,0.0,68,0.00,OVC,,0.00,WeatherDisplay:10.37,2013-10-28 14:00:00,
2013-10-28 10:05:00,50.4,40.6,30.18,NE,49,0.0,0.0,69,0.00,OVC,,0.00,WeatherDisplay:10.37,2013-10-28 14:05:00,
2013-10-28 10:10:00,50.5,40.4,30.18,NE,51,0.0,0.0,68,0.00,OVC,,0.00,WeatherDisplay:10.37,2013-10-28 14:10:00,
2013-10-28 10:15:00,50.7,40.5,30.18,ESE,109,0.0,0.0,68,0.00,OVC,,0.00,WeatherDisplay:10.37,2013-10-28 14:15:00,
2013-10-28 10:20:00,50.9,40.7,30.18,North,357,0.0,0.0,68,0.00,OVC,,0.00,WeatherDisplay:10.37,2013-10-28 14:20:00,
2013-10-28 10:25:00,51.1,40.1,30.19,North,357,2.6,2.6,66,0.00,OVC,,0.00,WeatherDisplay:10.37,2013-10-28 14:25:00,
2013-10-28 10:30:00,51.1,40.1,30.19,North,357,0.5,2.3,66,0.00,OVC,,0.00,WeatherDisplay:10.37,2013-10-28 14:30:00,
2013-10-28 10:35:00,51.4,40.5,30.19,NE,42,0.0,0.0,66,0.00,OVC,,0.00,WeatherDisplay:10.37,2013-10-28 14:35:00,
2013-10-28 10:40:00,51.4,40.5,30.19,East,87,0.0,0.0,66,0.00,OVC,,0.00,WeatherDisplay:10.37,2013-10-28 14:40:00,
2013-10-28 10:45:00,51.6,40.6,30.20,ENE,65,0.0,0.0,66,0.00,OVC,,0.00,WeatherDisplay:10.37,2013-10-28 14:45:00,
2013-10-28 10:50:00,51.8,40.4,30.20,WSW,245,0.0,0.0,65,0.00,OVC,,0.00,WeatherDisplay:10.37,2013-10-28 14:50:00,
2013-10-28 10:55:00,52.0,40.6,30.20,NNW,335,2.0,2.3,65,0.00,OVC,,0.00,WeatherDisplay:10.37,2013-10-28 14:55:00,
2013-10-28 11:00:00,52.0,40.6,30.20,NNW,346,3.0,0.0,65,0.00,OVC,,0.00,WeatherDisplay:10.37,2013-10-28 15:00:00,
2013-10-28 11:05:00,52.3,40.9,30.20,North,357,0.1,0.0,65,0.00,OVC,,0.00,WeatherDisplay:10.37,2013-10-28 15:05:00,
2013-10-28 11:10:00,52.3,40.9,30.20,ESE,109,1.3,1.3,65,0.00,BKN,,0.00,WeatherDisplay:10.37,2013-10-28 15:10:00,
2013-10-28 11:15:00,52.3,40.9,30.20,NNE,19,0.6,3.5,65,0.00,BKN,,0.00,WeatherDisplay:10.37,2013-10-28 15:15:00,
2013-10-28 11:20:00,52.7,41.3,30.20,NNE,19,0.0,0.0,65,0.00,BKN,,0.00,WeatherDisplay:10.37,2013-10-28 15:20:00,
2013-10-28 11:25:00,52.9,41.0,30.20,East,87,0.0,0.0,64,0.00,BKN,,0.00,WeatherDisplay:10.37,2013-10-28 15:25:00,
2013-10-28 11:30:00,53.4,41.5,30.20,ESE,109,0.0,0.0,64,0.00,BKN,,0.00,WeatherDisplay:10.37,2013-10-28 15:30:00,
2013-10-28 11:35:00,54.0,42.1,30.20,NNW,335,0.0,0.0,64,0.00,BKN,,0.00,WeatherDisplay:10.37,2013-10-28 15:35:00,
2013-10-28 11:40:00,54.3,41.6,30.20,ENE,65,0.0,1.1,62,0.00,BKN,,0.00,WeatherDisplay:10.37,2013-10-28 15:40:00,
2013-10-28 11:45:00,55.2,41.6,30.20,North,357,0.4,4.6,60,0.00,BKN,,0.00,WeatherDisplay:10.37,2013-10-28 15:45:00,
2013-10-28 11:50:00,55.6,41.5,30.20,East,87,2.0,2.3,59,0.00,BKN,,0.00,WeatherDisplay:10.37,2013-10-28 15:50:00,
2013-10-28 11:55:00,55.9,41.8,30.20,East,87,0.0,1.1,59,0.00,BKN,,0.00,WeatherDisplay:10.37,2013-10-28 15:55:00,
2013-10-28 12:00:00,56.5,41.9,30.20,SSE,155,0.0,0.0,58,0.00,BKN,,0.00,WeatherDisplay:10.37,2013-10-28 16:00:00,
2013-10-28 12:05:00,56.5,41.4,30.19,NE,42,0.0,0.0,57,0.00,BKN,,0.00,WeatherDisplay:10.37,2013-10-28 16:05:00,
2013-10-28 12:10:00,57.9,41.8,30.20,NNE,19,3.2,3.5,55,0.00,BKN,,0.00,WeatherDisplay:10.37,2013-10-28 16:10:00,
2013-10-28 12:15:00,57.9,41.8,30.20,SE,132,1.7,2.3,55,0.00,BKN,,0.00,WeatherDisplay:10.37,2013-10-28 16:15:00,
2013-10-28 12:20:00,58.8,42.2,30.20,ENE,65,2.9,3.5,54,0.00,BKN,,0.00,WeatherDisplay:10.37,2013-10-28 16:20:00,
2013-10-28 12:25:00,58.8,41.7,30.20,NW,312,0.7,1.3,53,0.00,BKN,,0.00,WeatherDisplay:10.37,2013-10-28 16:25:00,
2013-10-28 12:30:00,58.8,41.2,30.20,ESE,109,0.0,0.0,52,0.00,BKN,,0.00,WeatherDisplay:10.37,2013-10-28 16:30:00,
2013-10-28 12:35:00,58.8,41.7,30.20,ENE,65,0.0,0.0,53,0.00,BKN,,0.00,WeatherDisplay:10.37,2013-10-28 16:35:00,
2013-10-28 12:40:00,59.4,42.2,30.19,ENE,65,0.0,0.0,53,0.00,BKN,,0.00,WeatherDisplay:10.37,2013-10-28 16:40:00,
2013-10-28 12:45:00,60.4,41.7,30.19,ESE,109,7.4,7.4,50,0.00,BKN,,0.00,WeatherDisplay:10.37,2013-10-28 16:45:00,
2013-10-28 12:50:00,61.0,42.2,30.19,SSW,199,2.2,2.3,50,0.00,BKN,,0.00,WeatherDisplay:10.37,2013-10-28 16:50:00,
2013-10-28 12:55:00,61.7,42.9,30.19,ENE,65,1.5,2.3,50,0.00,BKN,,0.00,WeatherDisplay:10.37,2013-10-28 16:55:00,
2013-10-28 13:00:00,61.7,41.8,30.20,NW,312,0.0,0.0,48,0.00,BKN,,0.00,WeatherDisplay:10.37,2013-10-28 17:00:00,
2013-10-28 13:05:00,61.5,41.6,30.20,NNW,335,0.0,0.0,48,0.00,BKN,,0.00,WeatherDisplay:10.37,2013-10-28 17:05:00,
2013-10-28 13:10:00,61.3,41.5,30.19,NW,312,0.1,0.0,48,0.00,BKN,,0.00,WeatherDisplay:10.37,2013-10-28 17:10:00,
2013-10-28 13:15:00,61.3,40.9,30.19,North,357,0.0,0.0,47,0.00,BKN,,0.00,WeatherDisplay:10.37,2013-10-28 17:15:00,
2013-10-28 13:20:00,61.5,41.6,30.19,NE,42,0.9,1.1,48,0.00,BKN,,0.00,WeatherDisplay:10.37,2013-10-28 17:20:00,
2013-10-28 13:25:00,61.7,41.8,30.18,ESE,109,2.7,3.5,48,0.00,BKN,,0.00,WeatherDisplay:10.37,2013-10-28 17:25:00,
2013-10-28 13:30:00,62.2,42.3,30.18,NNW,335,1.0,3.5,48,0.00,BKN,,0.00,WeatherDisplay:10.37,2013-10-28 17:30:00,
2013-10-28 13:35:00,62.4,41.9,30.18,NNE,19,2.5,2.5,47,0.00,BKN,,0.00,WeatherDisplay:10.37,2013-10-28 17:35:00,
2013-10-28 13:40:00,62.8,42.2,30.18,NNW,335,2.7,4.6,47,0.00,BKN,,0.00,WeatherDisplay:10.37,2013-10-28 17:40:00,
2013-10-28 13:45:00,63.0,41.8,30.18,SSW,199,1.8,4.6,46,0.00,BKN,,0.00,WeatherDisplay:10.37,2013-10-28 17:45:00,
2013-10-28 13:50:00,63.1,42.6,30.18,ENE,65,3.1,3.5,47,0.00,BKN,,0.00,WeatherDisplay:10.37,2013-10-28 17:50:00,
2013-10-28 13:55:00,63.3,42.7,30.18,North,357,1.4,1.4,47,0.00,BKN,,0.00,WeatherDisplay:10.37,2013-10-28 17:55:00,
2013-10-28 14:00:00,63.3,42.7,30.18,ENE,65,1.4,3.5,47,0.00,BKN,,0.00,WeatherDisplay:10.37,2013-10-28 18:00:00,
2013-10-28 14:05:00,63.5,42.9,30.17,ESE,109,1.3,1.3,47,0.00,BKN,,0.00,WeatherDisplay:10.37,2013-10-28 18:05:00,
2013-10-28 14:10:00,63.7,43.1,30.17,NNW,335,0.0,0.0,47,0.00,CLR,,0.00,WeatherDisplay:10.37,2013-10-28 18:10:00,
2013-10-28 14:15:00,64.0,43.9,30.17,SSW,199,0.8,1.1,48,0.00,CLR,,0.00,WeatherDisplay:10.37,2013-10-28 18:15:00,
2013-10-28 14:20:00,65.7,45.4,30.17,NW,312,3.1,3.5,48,0.00,CLR,,0.00,WeatherDisplay:10.37,2013-10-28 18:20:00,
2013-10-28 14:25:00,66.0,44.6,30.17,NW,312,0.8,2.3,46,0.00,CLR,,0.00,WeatherDisplay:10.37,2013-10-28 18:25:00,
2013-10-28 14:30:00,65.5,43.6,30.17,ENE,65,2.6,2.6,45,0.00,CLR,,0.00,WeatherDisplay:10.37,2013-10-28 18:30:00,
2013-10-28 14:35:00,65.3,43.4,30.16,SE,132,1.1,1.1,45,0.00,CLR,,0.00,WeatherDisplay:10.37,2013-10-28 18:35:00,
2013-10-28 14:40:00,65.1,43.8,30.16,SE,132,0.5,0.0,46,0.00,CLR,,0.00,WeatherDisplay:10.37,2013-10-28 18:40:00,
2013-10-28 14:45:00,65.5,44.7,30.16,SSE,155,0.0,0.0,47,0.00,CLR,,0.00,WeatherDisplay:10.37,2013-10-28 18:45:00,
2013-10-28 14:50:00,66.4,45.5,30.16,NNE,19,0.0,0.0,47,0.00,CLR,,0.00,WeatherDisplay:10.37,2013-10-28 18:50:00,
2013-10-28 14:55:00,66.6,45.7,30.15,NE,42,2.5,2.5,47,0.00,CLR,,0.00,WeatherDisplay:10.37,2013-10-28 18:55:00,
2013-10-28 15:00:00,66.7,45.9,30.15,SSE,155,1.2,1.2,47,0.00,CLR,,0.00,WeatherDisplay:10.37,2013-10-28 19:00:00,
2013-10-28 15:05:00,66.9,46.0,30.15,ENE,65,0.0,0.0,47,0.00,CLR,,0.00,WeatherDisplay:10.37,2013-10-28 19:05:00,
2013-10-28 15:10:00,66.7,46.4,30.15,ESE,109,3.8,3.8,48,0.00,CLR,,0.00,WeatherDisplay:10.37,2013-10-28 19:10:00,
2013-10-28 15:15:00,66.9,46.0,30.16,East,87,0.0,2.3,47,0.00,CLR,,0.00,WeatherDisplay:10.37,2013-10-28 19:15:00,
2013-10-28 15:20:00,66.9,46.6,30.15,South,177,1.6,2.5,48,0.00,CLR,,0.00,WeatherDisplay:10.37,2013-10-28 19:20:00,
2013-10-28 15:25:00,66.9,46.0,30.16,South,177,2.2,2.3,47,0.00,CLR,,0.00,WeatherDisplay:10.37,2013-10-28 19:25:00,
2013-10-28 15:30:00,66.9,46.6,30.15,SE,132,1.4,1.4,48,0.00,CLR,,0.00,WeatherDisplay:10.37,2013-10-28 19:30:00,
2013-10-28 15:35:00,66.4,46.1,30.16,ESE,109,1.8,2.3,48,0.00,CLR,,0.00,WeatherDisplay:10.37,2013-10-28 19:35:00,
2013-10-28 15:40:00,66.0,46.3,30.16,ESE,109,1.4,2.3,49,0.00,CLR,,0.00,WeatherDisplay:10.37,2013-10-28 19:40:00,
2013-10-28 15:45:00,65.8,46.1,30.16,ENE,65,0.9,1.1,49,0.00,CLR,,0.00,WeatherDisplay:10.37,2013-10-28 19:45:00,
2013-10-28 15:50:00,65.8,46.1,30.15,ESE,109,1.1,1.1,49,0.00,CLR,,0.00,WeatherDisplay:10.37,2013-10-28 19:50:00,
2013-10-28 15:55:00,65.8,46.7,30.16,South,177,4.5,4.6,50,0.00,CLR,,0.00,WeatherDisplay:10.37,2013-10-28 19:55:00,
2013-10-28 16:00:00,66.2,47.0,30.16,ESE,109,2.8,3.5,50,0.00,CLR,,0.00,WeatherDisplay:10.37,2013-10-28 20:00:00,
2013-10-28 16:05:00,66.4,46.6,30.16,East,87,1.3,1.3,49,0.00,CLR,,0.00,WeatherDisplay:10.37,2013-10-28 20:05:00,
2013-10-28 16:10:00,66.2,46.5,30.16,SE,132,1.8,2.5,49,0.00,CLR,,0.00,WeatherDisplay:10.37,2013-10-28 20:10:00,
2013-10-28 16:15:00,66.4,47.2,30.16,ESE,109,5.1,5.1,50,0.00,CLR,,0.00,WeatherDisplay:10.37,2013-10-28 20:15:00,
2013-10-28 16:20:00,66.4,47.2,30.17,SSW,199,3.4,3.5,50,0.00,CLR,,0.00,WeatherDisplay:10.37,2013-10-28 20:20:00,
2013-10-28 16:25:00,66.9,47.7,30.17,ESE,109,0.5,1.1,50,0.00,CLR,,0.00,WeatherDisplay:10.37,2013-10-28 20:25:00,
2013-10-28 16:30:00,67.1,47.3,30.17,NE,42,1.3,1.3,49,0.00,CLR,,0.00,WeatherDisplay:10.37,2013-10-28 20:30:00,
2013-10-28 16:35:00,66.9,47.1,30.17,SE,132,0.0,0.0,49,0.00,CLR,,0.00,WeatherDisplay:10.37,2013-10-28 20:35:00,
2013-10-28 16:40:00,66.7,47.0,30.17,East,87,0.0,0.0,49,0.00,CLR,,0.00,WeatherDisplay:10.37,2013-10-28 20:40:00,
2013-10-28 16:45:00,66.4,47.2,30.17,East,87,0.0,0.0,50,0.00,CLR,,0.00,WeatherDisplay:10.37,2013-10-28 20:45:00,
2013-10-28 16:50:00,66.0,46.8,30.17,SSE,155,3.3,3.5,50,0.00,CLR,,0.00,WeatherDisplay:10.37,2013-10-28 20:50:00,
2013-10-28 16:55:00,65.8,46.7,30.18,SE,132,2.1,2.3,50,0.00,CLR,,0.00,WeatherDisplay:10.37,2013-10-28 20:55:00,
2013-10-28 17:00:00,65.8,47.2,30.17,SSE,155,1.4,1.6,51,0.00,CLR,,0.00,WeatherDisplay:10.37,2013-10-28 21:00:00,
2013-10-28 17:05:00,65.5,46.9,30.18,ESE,109,0.9,1.1,51,0.00,CLR,,0.00,WeatherDisplay:10.37,2013-10-28 21:05:00,
2013-10-28 17:10:00,65.5,46.9,30.18,WSW,245,0.0,0.0,51,0.00,CLR,,0.00,WeatherDisplay:10.37,2013-10-28 21:10:00,
2013-10-28 17:15:00,65.3,47.2,30.18,ESE,109,0.0,0.0,52,0.00,CLR,,0.00,WeatherDisplay:10.37,2013-10-28 21:15:00,
2013-10-28 17:20:00,65.3,47.7,30.18,ESE,109,0.0,0.0,53,0.00,CLR,,0.00,WeatherDisplay:10.37,2013-10-28 21:20:00,
2013-10-28 17:25:00,65.1,47.6,30.18,ESE,109,0.0,0.0,53,0.00,CLR,,0.00,WeatherDisplay:10.37,2013-10-28 21:25:00,
2013-10-28 17:30:00,65.1,47.6,30.18,East,87,0.0,0.0,53,0.00,CLR,,0.00,WeatherDisplay:10.37,2013-10-28 21:30:00,
2013-10-28 17:35:00,64.8,47.2,30.18,South,177,0.0,0.0,53,0.00,CLR,,0.00,WeatherDisplay:10.37,2013-10-28 21:35:00,
2013-10-28 17:40:00,64.6,47.1,30.18,ESE,109,0.0,0.0,53,0.00,CLR,,0.00,WeatherDisplay:10.37,2013-10-28 21:40:00,
2013-10-28 17:45:00,64.2,47.2,30.18,ESE,109,0.0,0.0,54,0.00,CLR,,0.00,WeatherDisplay:10.37,2013-10-28 21:45:00,
2013-10-28 17:50:00,64.0,47.1,30.18,SE,132,0.0,0.0,54,0.00,CLR,,0.00,WeatherDisplay:10.37,2013-10-28 21:50:00,
2013-10-28 17:55:00,63.7,46.7,30.18,ESE,109,0.0,0.0,54,0.00,CLR,,0.00,WeatherDisplay:10.37,2013-10-28 21:55:00,
2013-10-28 18:00:00,63.5,47.0,30.18,East,87,0.0,0.0,55,0.00,CLR,,0.00,WeatherDisplay:10.37,2013-10-28 22:00:00,
2013-10-28 18:05:00,63.1,46.7,30.18,ESE,109,0.0,0.0,55,0.00,CLR,,0.00,WeatherDisplay:10.37,2013-10-28 22:05:00,
2013-10-28 18:10:00,62.8,46.4,30.18,SE,132,0.0,0.0,55,0.00,CLR,,0.00,WeatherDisplay:10.37,2013-10-28 22:10:00,
2013-10-28 18:15:00,62.6,46.7,30.18,SE,132,0.0,0.0,56,0.00,CLR,,0.00,WeatherDisplay:10.37,2013-10-28 22:15:00,
2013-10-28 18:20:00,62.2,46.3,30.18,SSE,155,0.0,0.0,56,0.00,CLR,,0.00,WeatherDisplay:10.37,2013-10-28 22:20:00,
2013-10-28 18:25:00,61.7,46.3,30.18,SSE,155,0.0,0.0,57,0.00,CLR,,0.00,WeatherDisplay:10.37,2013-10-28 22:25:00,
2013-10-28 18:30:00,61.3,46.4,30.18,SE,132,0.0,0.0,58,0.00,CLR,,0.00,WeatherDisplay:10.37,2013-10-28 22:30:00,
2013-10-28 18:35:00,60.6,46.2,30.18,ESE,109,0.0,0.0,59,0.00,CLR,,0.00,WeatherDisplay:10.37,2013-10-28 22:35:00,
2013-10-28 18:40:00,60.1,46.1,30.18,SE,132,0.0,0.0,60,0.00,CLR,,0.00,WeatherDisplay:10.37,2013-10-28 22:40:00,
2013-10-28 18:45:00,59.7,45.4,30.18,SE,132,0.0,0.0,59,0.00,CLR,,0.00,WeatherDisplay:10.37,2013-10-28 22:45:00,
2013-10-28 18:50:00,58.8,45.0,30.19,SSE,155,0.0,0.0,60,0.00,CLR,,0.00,WeatherDisplay:10.37,2013-10-28 22:50:00,
2013-10-28 18:55:00,58.6,45.2,30.19,SSE,155,0.0,0.0,61,0.00,CLR,,0.00,WeatherDisplay:10.37,2013-10-28 22:55:00,
2013-10-28 19:00:00,57.9,45.0,30.20,SSE,155,0.0,0.0,62,0.00,CLR,,0.00,WeatherDisplay:10.37,2013-10-28 23:00:00,
2013-10-28 19:05:00,57.4,44.9,30.20,SSE,155,0.0,0.0,63,0.00,CLR,,0.00,WeatherDisplay:10.37,2013-10-28 23:05:00,
2013-10-28 19:10:00,57.0,44.5,30.20,SSE,155,0.0,0.0,63,0.00,CLR,,0.00,WeatherDisplay:10.37,2013-10-28 23:10:00,
2013-10-28 19:15:00,56.7,44.6,30.20,SSE,155,0.0,0.0,64,0.00,CLR,,0.00,WeatherDisplay:10.37,2013-10-28 23:15:00,
2013-10-28 19:20:00,56.1,44.5,30.21,SSE,155,0.0,0.0,65,0.00,CLR,,0.00,WeatherDisplay:10.37,2013-10-28 23:20:00,
2013-10-28 19:25:00,55.8,44.6,30.21,SSE,155,0.0,0.0,66,0.00,CLR,,0.00,WeatherDisplay:10.37,2013-10-28 23:25:00,
2013-10-28 19:30:00,55.4,44.2,30.21,SE,132,0.0,0.0,66,0.00,CLR,,0.00,WeatherDisplay:10.37,2013-10-28 23:30:00,
2013-10-28 19:35:00,55.0,44.3,30.21,SE,132,0.0,0.0,67,0.00,CLR,,0.00,WeatherDisplay:10.37,2013-10-28 23:35:00,
2013-10-28 19:40:00,55.0,45.1,30.21,East,87,0.0,0.0,69,0.00,CLR,,0.00,WeatherDisplay:10.37,2013-10-28 23:40:00,
2013-10-28 19:45:00,54.7,45.1,30.20,ESE,109,0.0,0.0,70,0.00,CLR,,0.00,WeatherDisplay:10.37,2013-10-28 23:45:00,
2013-10-28 19:50:00,54.5,44.9,30.20,ESE,109,0.0,0.0,70,0.00,CLR,,0.00,WeatherDisplay:10.37,2013-10-28 23:50:00,
2013-10-28 19:55:00,54.3,44.7,30.20,ESE,109,0.0,0.0,70,0.00,CLR,,0.00,WeatherDisplay:10.37,2013-10-28 23:55:00,
2013-10-28 20:00:00,54.1,44.6,30.21,ESE,109,0.0,0.0,70,0.00,CLR,,0.00,WeatherDisplay:10.37,2013-10-29 00:00:00,
2013-10-28 20:05:00,53.8,44.6,30.21,ENE,65,0.0,0.0,71,0.00,CLR,,0.00,WeatherDisplay:10.37,2013-10-29 00:05:00,
2013-10-28 20:10:00,53.6,44.8,30.21,NE,42,0.0,0.0,72,0.00,CLR,,0.00,WeatherDisplay:10.37,2013-10-29 00:10:00,
2013-10-28 20:15:00,53.4,44.6,30.21,NE,42,0.0,0.0,72,0.00,CLR,,0.00,WeatherDisplay:10.37,2013-10-29 00:15:00,
2013-10-28 20:20:00,53.4,45.0,30.21,NE,42,0.0,0.0,73,0.00,CLR,,0.00,WeatherDisplay:10.37,2013-10-29 00:20:00,
2013-10-28 20:25:00,53.2,45.2,30.21,East,87,0.0,0.0,74,0.00,CLR,,0.00,WeatherDisplay:10.37,2013-10-29 00:25:00,
2013-10-28 20:30:00,53.2,45.2,30.21,East,87,0.0,0.0,74,0.00,CLR,,0.00,WeatherDisplay:10.37,2013-10-29 00:30:00,
2013-10-28 20:36:00,52.9,44.8,30.22,East,87,0.0,0.0,74,0.00,CLR,,0.00,WeatherDisplay:10.37,2013-10-29 00:36:00,
2013-10-28 20:41:00,52.9,44.8,30.22,East,87,0.0,0.0,74,0.00,CLR,,0.00,WeatherDisplay:10.37,2013-10-29 00:41:00,
2013-10-28 20:46:00,52.7,44.6,30.22,East,87,0.0,0.0,74,0.00,CLR,,0.00,WeatherDisplay:10.37,2013-10-29 00:46:00,
2013-10-28 20:51:00,52.5,44.8,30.22,ENE,65,0.0,0.0,75,0.00,CLR,,0.00,WeatherDisplay:10.37,2013-10-29 00:51:00,
2013-10-28 20:56:00,52.5,44.8,30.22,ENE,65,0.0,0.0,75,0.00,CLR,,0.00,WeatherDisplay:10.37,2013-10-29 00:56:00,
2013-10-28 21:01:00,52.3,44.3,30.22,ENE,65,0.0,0.0,74,0.00,CLR,,0.00,WeatherDisplay:10.37,2013-10-29 01:01:00,
2013-10-28 21:06:00,52.2,44.1,30.22,ENE,65,0.0,0.0,74,0.00,CLR,,0.00,WeatherDisplay:10.37,2013-10-29 01:06:00,
2013-10-28 21:11:00,52.0,43.9,30.22,SSE,155,0.0,0.0,74,0.00,CLR,,0.00,WeatherDisplay:10.37,2013-10-29 01:11:00,
2013-10-28 21:16:00,51.6,43.6,30.22,SSE,155,0.0,0.0,74,0.00,CLR,,0.00,WeatherDisplay:10.37,2013-10-29 01:16:00,
2013-10-28 21:21:00,51.6,44.0,30.22,SE,132,0.0,0.0,75,0.00,CLR,,0.00,WeatherDisplay:10.37,2013-10-29 01:21:00,
2013-10-28 21:26:00,51.4,43.8,30.22,East,87,0.0,0.0,75,0.00,CLR,,0.00,WeatherDisplay:10.37,2013-10-29 01:26:00,
2013-10-28 21:31:00,51.3,44.0,30.22,SE,132,0.0,0.0,76,0.00,CLR,,0.00,WeatherDisplay:10.37,2013-10-29 01:31:00,
2013-10-28 21:36:00,51.3,44.0,30.22,SE,132,0.0,0.0,76,0.00,CLR,,0.00,WeatherDisplay:10.37,2013-10-29 01:36:00,
2013-10-28 21:41:00,51.1,43.8,30.22,ESE,109,0.0,0.0,76,0.00,CLR,,0.00,WeatherDisplay:10.37,2013-10-29 01:41:00,
2013-10-28 21:46:00,51.1,44.1,30.22,East,87,0.0,0.0,77,0.00,CLR,,0.00,WeatherDisplay:10.37,2013-10-29 01:46:00,
2013-10-28 21:51:00,51.1,44.1,30.22,East,87,0.0,0.0,77,0.00,CLR,,0.00,WeatherDisplay:10.37,2013-10-29 01:51:00,
2013-10-28 21:56:00,50.7,43.8,30.23,East,87,0.0,0.0,77,0.00,CLR,,0.00,WeatherDisplay:10.37,2013-10-29 01:56:00,
2013-10-28 22:01:00,50.7,44.1,30.23,ESE,109,0.0,0.0,78,0.00,CLR,,0.00,WeatherDisplay:10.37,2013-10-29 02:01:00,
2013-10-28 22:06:00,50.5,44.3,30.23,ESE,109,0.0,0.0,79,0.00,CLR,,0.00,WeatherDisplay:10.37,2013-10-29 02:06:00,
2013-10-28 22:11:00,50.5,44.3,30.23,ESE,109,0.0,0.0,79,0.00,CLR,,0.00,WeatherDisplay:10.37,2013-10-29 02:11:00,
2013-10-28 22:16:00,50.4,44.4,30.23,East,87,0.0,0.0,80,0.00,CLR,,0.00,WeatherDisplay:10.37,2013-10-29 02:16:00,
2013-10-28 22:21:00,50.5,44.9,30.23,ESE,109,0.0,0.0,81,0.00,CLR,,0.00,WeatherDisplay:10.37,2013-10-29 02:21:00,
2013-10-28 22:26:00,50.5,45.2,30.23,ENE,65,0.0,0.0,82,0.00,CLR,,0.00,WeatherDisplay:10.37,2013-10-29 02:26:00,
2013-10-28 22:31:00,50.5,45.2,30.23,East,87,0.0,0.0,82,0.00,CLR,,0.00,WeatherDisplay:10.37,2013-10-29 02:31:00,
2013-10-28 22:36:00,50.5,45.2,30.24,ENE,65,0.0,0.0,82,0.00,CLR,,0.00,WeatherDisplay:10.37,2013-10-29 02:36:00,
2013-10-28 22:41:00,50.5,45.2,30.24,ESE,109,0.0,0.0,82,0.00,CLR,,0.00,WeatherDisplay:10.37,2013-10-29 02:41:00,
2013-10-28 22:46:00,50.5,45.2,30.24,ESE,109,0.0,0.0,82,0.00,CLR,,0.00,WeatherDisplay:10.37,2013-10-29 02:46:00,
2013-10-28 22:51:00,50.4,45.4,30.24,ESE,109,0.0,0.0,83,0.00,CLR,,0.00,WeatherDisplay:10.37,2013-10-29 02:51:00,
2013-10-28 22:56:00,50.4,45.4,30.24,ENE,65,0.0,0.0,83,0.00,CLR,,0.00,WeatherDisplay:10.37,2013-10-29 02:56:00,
2013-10-28 23:01:00,50.4,45.7,30.24,ENE,65,0.0,0.0,84,0.00,CLR,,0.00,WeatherDisplay:10.37,2013-10-29 03:01:00,
2013-10-28 23:06:00,50.7,46.1,30.25,WNW,289,0.0,0.0,84,0.00,CLR,,0.00,WeatherDisplay:10.37,2013-10-29 03:06:00,
2013-10-28 23:11:00,50.7,46.1,30.25,WNW,289,0.0,0.0,84,0.00,CLR,,0.00,WeatherDisplay:10.37,2013-10-29 03:11:00,
2013-10-28 23:16:00,50.5,45.9,30.25,NW,312,0.0,0.0,84,0.00,CLR,,0.00,WeatherDisplay:10.37,2013-10-29 03:16:00,
2013-10-28 23:21:00,50.7,46.4,30.25,NW,312,0.0,0.0,85,0.00,CLR,,0.00,WeatherDisplay:10.37,2013-10-29 03:21:00,
2013-10-28 23:26:00,50.7,46.4,30.25,NW,312,0.0,0.0,85,0.00,CLR,,0.00,WeatherDisplay:10.37,2013-10-29 03:26:00,
2013-10-28 23:31:00,50.7,46.4,30.25,WNW,289,0.0,0.0,85,0.00,CLR,,0.00,WeatherDisplay:10.37,2013-10-29 03:31:00,
2013-10-28 23:36:00,50.7,46.4,30.25,WNW,289,0.0,0.0,85,0.00,CLR,,0.00,WeatherDisplay:10.37,2013-10-29 03:36:00,
2013-10-28 23:41:00,50.9,46.6,30.25,WNW,289,0.0,0.0,85,0.00,CLR,,0.00,WeatherDisplay:10.37,2013-10-29 03:41:00,
2013-10-28 23:46:00,51.1,46.7,30.25,WNW,289,0.0,0.0,85,0.00,CLR,,0.00,WeatherDisplay:10.37,2013-10-29 03:46:00,
2013-10-28 23:51:00,51.4,47.4,30.25,WNW,289,0.0,0.0,86,0.00,CLR,,0.00,WeatherDisplay:10.37,2013-10-29 03:51:00,
2013-10-28 23:56:00,51.1,46.7,30.25,WNW,289,0.0,0.0,85,0.00,CLR,,0.00,WeatherDisplay:10.37,2013-10-29 03:56:00,